Weather History for Chievres, Belgium

Change the Weather History Date:

Tuesday, July 23, 2013

  Actual Average Record
Temperature  
Mean Temperature 73 °F -  
Max Temperature 88 °F 68 °F 88 °F (2013)
Min Temperature 58 °F 55 °F 32 °F (2001)
Cooling Degree Days 8    
Growing Degree Days 23 (Base 50)    
Moisture  
Dew Point 62 °F    
Average Humidity 70    
Maximum Humidity 94    
Minimum Humidity 33    
Precipitation  
Precipitation 0.00 in - - ()
Sea Level Pressure  
Sea Level Pressure 29.94 in    
Wind  
Wind Speed 3 mph ()    
Max Wind Speed 16 mph    
Max Gust Speed -    
Visibility 6.4 miles    
Events      
Averages and records for this station are not official NWS values.
T = Trace of Precipitation, MM = Missing Value Source: Averaged Metar Reports

Daily Weather History Graph

Daily Weather History Graph

Search for Another Location

Airport:

Trip Planner

Search our weather history database for the weather conditions in past years. The results will help you decide how hot, cold, wet, or windy it might be!

Date:

Astronomy

Jul. 23, 2013 Rise Set
Actual Time 5:59 AM CEST 9:41 PM CEST
Civil Twilight 5:18 AM CEST 10:23 PM CEST
Nautical Twilight 4:21 AM CEST 11:19 PM CEST
Astronomical Twilight 2:54 AM CEST 12:43 AM CEST
Moon 9:43 PM CEST (7/23) 7:01 AM CEST (7/23)
Length of Visible Light 17h 04m
Length of Day
15h 42m
Full, 99% of the Moon is Illuminated
Jul 23
Full
Jul 29
Last Quarter
Aug 6
New
Aug 14
First Quarter
Aug 21
Full

Hourly Weather History & Observations

Time (CEST) Temp. Heat Index Dew Point Humidity Pressure Visibility Wind Dir Wind Speed Gust Speed Precip Events Conditions
12:25 AM 71.6 °F - 59.0 °F 64% 29.98 in 6.2 mi NNE 3.5 mph - N/A   Unknown
1:12 AM 64.4 °F - 60.8 °F 88% 29.98 in 0.5 mi Variable 1.2 mph - N/A   Unknown
1:24 AM 64.4 °F - 59.0 °F 83% 29.98 in 6.2 mi Variable 2.3 mph - N/A   Unknown
1:25 AM 64.4 °F - 60.8 °F 88% 29.98 in 6.2 mi SSW 3.5 mph - N/A   Unknown
2:00 AM 64 °F - 60 °F 81% 29.98 in 10 mi 2.2 mph - -  
2:25 AM 62.6 °F - 59.0 °F 88% 29.95 in 6.2 mi Variable 1.2 mph - N/A   Unknown
3:25 AM 60.8 °F - 59.0 °F 94% 29.95 in 6.2 mi Variable 1.2 mph - N/A   Unknown
4:25 AM 60.8 °F - 57.2 °F 88% 29.95 in 6.2 mi Variable 1.2 mph - N/A   Unknown
5:00 AM 60 °F - 57 °F 86% 29.95 in 6 mi 2.2 mph - -  
5:25 AM 59.0 °F - 57.2 °F 94% 29.95 in 5.6 mi Variable 1.2 mph - N/A   Unknown
5:51 AM 59.0 °F - 57.2 °F 94% 29.92 in 4.3 mi Variable 1.2 mph - N/A   Unknown
6:04 AM 59.0 °F - 57.2 °F 94% 29.92 in 5.0 mi Variable 1.2 mph - N/A   Unknown
6:06 AM 59.0 °F - 57.2 °F 94% 29.92 in 4.3 mi Variable 1.2 mph - N/A   Unknown
6:25 AM 59.0 °F - 57.2 °F 94% 29.95 in 4.3 mi SW 3.5 mph - N/A   Unknown
7:25 AM 62.6 °F - 59.0 °F 88% 29.95 in 4.3 mi Variable 1.2 mph - N/A   Unknown
7:51 AM 66.2 °F - 60.8 °F 83% 29.95 in 6.2 mi Variable 1.2 mph - N/A   Unknown
8:00 AM 66 °F - 61 °F 79% 29.96 in 5 mi 2.2 mph - -  
8:25 AM 68.0 °F - 60.8 °F 78% 29.95 in 6.2 mi Variable 3.5 mph - N/A   Unknown
9:25 AM 73.4 °F - 62.6 °F 69% 29.95 in 6.2 mi Variable 2.3 mph - N/A   Unknown
10:25 AM 77.0 °F - 62.6 °F 61% 29.95 in 6.2 mi Variable 2.3 mph - N/A   Unknown
11:00 AM 79 °F - 62 °F 46% 29.95 in 7 mi 2.2 mph - -  
11:25 AM 82.4 °F 83.9 °F 64.4 °F 54% 29.95 in 6.2 mi Variable 1.2 mph - N/A   Unknown
12:25 PM 82.4 °F 83.4 °F 62.6 °F 51% 29.95 in 6.2 mi NE 3.5 mph - N/A   Partly Cloudy
12:37 PM 84.2 °F 85.6 °F 64.4 °F 51% 29.92 in 1.2 mi NE 4.6 mph - N/A   Partly Cloudy
12:49 PM 84.2 °F 85.6 °F 64.4 °F 51% 29.92 in 6.2 mi NE 5.8 mph - N/A   Partly Cloudy
12:56 PM 84.2 °F 85.0 °F 62.6 °F 48% 29.92 in 3.1 mi NE 5.8 mph - N/A   Partly Cloudy
1:07 PM 84.2 °F 85.0 °F 62.6 °F 48% 29.92 in 6.2 mi ENE 4.6 mph - N/A   Partly Cloudy
1:25 PM 84.2 °F 85.6 °F 64.4 °F 51% 29.92 in 6.2 mi ENE 3.5 mph - N/A   Partly Cloudy
2:00 PM 85 °F - 63 °F 37% 29.92 in 12 mi 2.2 mph - -   Scattered Clouds
2:25 PM 86.0 °F 87.3 °F 64.4 °F 48% 29.92 in 6.2 mi North 3.5 mph - N/A   Partly Cloudy
3:25 PM 87.8 °F 87.1 °F 59.0 °F 38% 29.89 in 6.2 mi NNW 3.5 mph - N/A   Partly Cloudy
4:25 PM 86.0 °F 86.1 °F 60.8 °F 43% 29.89 in 6.2 mi NNW 3.5 mph - N/A   Partly Cloudy
5:00 PM 85 °F - 60 °F 33% 29.89 in 16 mi North 4.5 mph - -   Scattered Clouds
5:25 PM 84.2 °F 85.0 °F 62.6 °F 48% 29.89 in 6.2 mi North 5.8 mph - N/A   Partly Cloudy
6:25 PM 82.4 °F 84.6 °F 66.2 °F 58% 29.92 in 6.2 mi WNW 4.6 mph - N/A   Scattered Clouds
7:25 PM 75.2 °F - 66.2 °F 73% 29.92 in 6.2 mi West 13.8 mph - N/A   Scattered Clouds
8:00 PM 73 °F - 66 °F 72% 29.92 in 14 mi West 15.7 mph - -   Mostly Cloudy
8:25 PM 73.4 °F - 66.2 °F 78% 29.89 in 6.2 mi NW 6.9 mph - N/A   Mostly Cloudy
9:25 PM 71.6 °F - 66.2 °F 83% 29.92 in 6.2 mi Variable 2.3 mph - N/A   Mostly Cloudy
10:25 PM 71.6 °F - 66.2 °F 83% 29.92 in 6.2 mi Variable 2.3 mph - N/A   Mostly Cloudy
11:00 PM 71 °F - 66 °F 78% 29.95 in 10 mi WSW 6.7 mph - -   Mostly Cloudy
11:25 PM 69.8 °F - 64.4 °F 83% 29.92 in 6.2 mi West 6.9 mph - N/A   Partly Cloudy